GW5033 Weather Reports


Display with metric or nautical units.
time (UTC)temp
F
wind
direction
speed
MPH
gust
MPH
rain 1hr
in
rain 24hr
in
rain mn
in
humidity
%
barometer
mb
20260507105008 39 271 1.0 4.0 0.00 0.74 0.00 96 1007.8
20260507104514 39 253 1.0 5.0 0.00 0.74 0.00 96 1007.7
20260507104006 39 283 1.0 5.0 0.00 0.74 0.00 96 1007.8
20260507103504 39 252 2.0 5.0 0.00 0.74 0.00 96 1007.7
20260507103013 39 270 2.0 4.0 0.00 0.74 0.00 96 1007.7
20260507102504 39 269 0.0 1.0 0.00 0.74 0.00 96 1007.6
20260507102007 39 247 0.0 2.0 0.00 0.74 0.00 96 1007.6
20260507101517 39 269 0.0 2.0 0.00 0.74 0.00 96 1007.7
20260507101006 39 246 1.0 2.0 0.00 0.74 0.00 96 1007.7
20260507100503 39 257 0.0 2.0 0.00 0.74 0.00 96 1007.7
20260507100016 39 281 0.0 2.0 0.00 0.74 0.00 96 1007.7
20260507095505 39 279 0.0 2.0 0.00 0.75 0.00 96 1007.7
20260507095004 39 268 0.0 2.0 0.00 0.75 0.00 96 1007.7
20260507094517 39 262 0.0 2.0 0.00 0.75 0.00 96 1007.6
20260507094005 39 274 0.0 1.0 0.00 0.75 0.00 96 1007.7
20260507093506 39 272 0.0 0.0 0.00 0.75 0.00 96 1007.7
20260507093019 39 273 0.0 0.0 0.00 0.75 0.00 96 1007.6
20260507092504 39 273 0.0 0.0 0.00 0.75 0.00 96 1007.5
20260507092007 39 272 0.0 0.0 0.00 0.75 0.00 96 1007.7
20260507091513 39 273 0.0 0.0 0.00 0.75 0.00 96 1007.8
20260507091007 39 272 0.0 0.0 0.00 0.75 0.00 96 1007.9
20260507090507 39 273 0.0 0.0 0.00 0.75 0.00 96 1007.9
20260507090024 39 273 0.0 0.0 0.00 0.75 0.00 96 1007.8
20260507085506 39 272 0.0 0.0 0.00 0.75 0.00 96 1007.6
20260507085008 39 273 0.0 0.0 0.00 0.75 0.00 96 1007.8
20260507084520 39 272 0.0 0.0 0.00 0.75 0.00 96 1007.8
20260507084006 39 273 0.0 0.0 0.00 0.75 0.00 96 1007.8
20260507083506 39 273 0.0 0.0 0.00 0.75 0.00 96 1007.9
20260507083024 39 273 0.0 0.0 0.00 0.75 0.00 96 1007.9
20260507082503 39 271 0.0 0.0 0.00 0.75 0.00 96 1007.9
20260507082008 39 271 0.0 1.0 0.00 0.75 0.00 96 1007.9
20260507081519 39 271 0.0 1.0 0.00 0.75 0.00 96 1008.0
20260507081008 39 257 0.0 1.0 0.00 0.75 0.00 96 1008.1
20260507080505 39 257 0.0 1.0 0.00 0.75 0.00 96 1008.0
20260507080023 39 264 0.0 1.0 0.00 0.75 0.00 96 1008.0
20260507075505 39 264 0.0 0.0 0.00 0.75 0.00 96 1008.1
20260507075009 39 264 0.0 0.0 0.00 0.75 0.00 96 1008.0
20260507074520 39 264 0.0 0.0 0.00 0.77 0.00 96 1008.1
20260507074005 39 264 0.0 0.0 0.00 0.77 0.00 96 1008.2
20260507073508 39 264 0.0 1.0 0.00 0.77 0.00 96 1008.1
20260507073020 39 264 0.0 1.0 0.00 0.77 0.00 96 1008.1
20260507072507 39 276 0.0 1.0 0.00 0.77 0.00 96 1008.1
20260507072006 39 277 1.0 1.0 0.00 0.77 0.00 96 1008.0
20260507071522 39 277 0.0 1.0 0.00 0.77 0.00 96 1008.0
20260507071005 39 277 0.0 1.0 0.00 0.77 0.00 96 1008.1
20260507070504 39 107 0.0 1.0 0.00 0.77 0.00 96 1008.1
20260507070028 39 105 0.0 1.0 0.00 0.78 0.00 96 1008.0
20260507065504 39 105 0.0 1.0 0.00 0.79 0.00 96 1007.9
20260507065007 38 105 0.0 1.0 0.00 0.79 0.00 96 1007.7
20260507064524 38 107 0.0 0.0 0.00 0.79 0.00 96 1007.8
20260507064006 38 107 0.0 0.0 0.00 0.80 0.00 96 1007.7
20260507063507 38 107 0.0 1.0 0.00 0.80 0.00 96 1007.6
20260507063020 38 107 0.0 2.0 0.00 0.81 0.00 96 1007.3
20260507062509 38 112 1.0 2.0 0.00 0.82 0.00 96 1007.3
20260507062007 38 102 1.0 3.0 0.00 0.82 0.00 96 1007.4
20260507061522 38 105 1.0 3.0 0.00 0.82 0.00 96 1007.3
20260507061006 38 96 1.0 2.0 0.00 0.82 0.00 96 1007.5
20260507060503 38 99 1.0 1.0 0.00 0.82 0.00 96 1007.7
20260507060005 38 100 0.0 1.0 0.00 0.82 0.00 96 1007.9
20260507055504 38 100 0.0 1.0 0.00 0.82 0.00 96 1008.0
20260507055003 38 99 1.0 1.0 0.00 0.82 0.00 96 1008.0
20260507054518 38 100 0.0 1.0 0.00 0.82 0.00 96 1007.9
20260507054005 38 100 1.0 1.0 0.00 0.82 0.00 96 1007.8
20260507053505 38 72 0.0 1.0 0.00 0.83 0.00 96 1008.2
20260507053018 38 72 0.0 1.0 0.00 0.83 0.00 96 1008.4
20260507052506 38 73 0.0 1.0 0.00 0.83 0.00 96 1008.3
20260507052005 38 73 0.0 0.0 0.00 0.83 0.00 96 1008.4
20260507051524 38 72 0.0 0.0 0.00 0.83 0.00 96 1008.5
20260507051008 38 72 0.0 0.0 0.00 0.83 0.00 96 1008.5
20260507050508 38 73 0.0 0.0 0.00 0.83 0.00 96 1008.5
20260507050007 38 73 0.0 0.0 0.00 0.84 0.00 96 1008.3
20260507045503 38 72 0.0 0.0 0.00 0.85 0.00 96 1008.6
20260507045003 38 72 0.0 0.0 0.00 0.85 0.00 96 1008.7
20260507044507 38 73 0.0 1.0 0.00 0.85 0.00 96 1008.7
20260507044003 38 73 0.0 2.0 0.00 0.85 0.00 96 1008.6
20260507043502 38 68 1.0 2.0 0.00 0.85 0.00 96 1008.3
20260507043020 39 80 1.0 2.0 0.00 0.85 0.00 96 1008.6
20260507042504 39 94 0.0 0.0 0.00 0.85 0.00 96 1008.8
20260507042004 39 94 0.0 0.0 0.00 0.86 0.00 96 1008.8
20260507041516 39 94 0.0 1.0 0.00 0.88 0.00 96 1008.6
20260507041008 39 94 0.0 1.0 0.00 0.88 0.00 96 1008.4
20260507040507 39 94 0.0 1.0 0.00 0.88 0.00 96 1008.5
20260507040021 39 94 0.0 0.0 0.00 0.89 0.00 96 1008.6
20260507035507 39 94 0.0 0.0 0.00 0.89 0.89 96 1008.7
20260507035006 39 94 0.0 1.0 0.00 0.89 0.89 96 1008.7
20260507034503 39 94 0.0 1.0 0.00 0.89 0.89 96 1008.6
20260507034002 39 94 0.0 1.0 0.00 0.90 0.89 96 1008.6
20260507033505 39 94 0.0 1.0 0.00 0.92 0.89 96 1008.6
20260507033006 39 94 0.0 1.0 0.00 0.98 0.89 96 1008.4
20260507032504 39 94 0.0 1.0 0.00 1.01 0.89 96 1008.7
20260507032005 39 94 0.0 1.0 0.00 1.01 0.89 96 1008.7
20260507031513 39 94 0.0 1.0 0.00 1.02 0.89 96 1008.7
20260507031004 39 94 0.0 1.0 0.00 1.02 0.89 96 1008.9
20260507030504 39 94 0.0 1.0 0.00 1.05 0.89 96 1008.9
20260507030020 39 94 0.0 1.0 0.00 1.08 0.89 96 1008.8
20260507025504 39 94 0.0 1.0 0.00 1.09 0.89 96 1008.5
20260507025007 39 94 1.0 2.0 0.00 1.10 0.89 96 1008.4
20260507024524 39 95 1.0 2.0 0.00 1.11 0.89 96 1008.5
20260507024011 40 101 1.0 2.0 0.00 1.11 0.89 96 1008.4
20260507023506 39 157 0.0 1.0 0.01 1.11 0.89 96 1008.7
20260507023027 39 157 0.0 0.0 0.01 1.11 0.89 96 1008.7
20260507022503 40 157 0.0 1.0 0.01 1.11 0.89 96 1008.9
20260507022003 40 157 0.0 1.0 0.01 1.12 0.89 96 1008.8
20260507021510 39 280 0.0 1.0 0.02 1.14 0.89 96 1008.9
20260507021003 39 280 0.0 1.0 0.02 1.14 0.89 96 1008.6
20260507020507 40 280 0.0 0.0 0.03 1.14 0.89 96 1008.7
20260507020017 40 280 0.0 0.0 0.03 1.14 0.89 96 1008.8
20260507015506 40 280 0.0 0.0 0.03 1.14 0.89 96 1008.9
20260507015008 40 280 0.0 0.0 0.04 1.14 0.89 96 1009.0
20260507014527 40 280 0.0 0.0 0.04 1.14 0.89 96 1008.7
20260507014006 40 280 0.0 0.0 0.05 1.14 0.89 96 1008.6
20260507013508 40 280 0.0 0.0 0.04 1.13 0.88 96 1008.7
20260507013042 40 280 0.0 0.0 0.05 1.13 0.88 96 1008.7
20260507012506 40 280 0.0 0.0 0.05 1.13 0.88 96 1008.8
20260507012009 40 280 0.0 0.0 0.05 1.13 0.88 96 1008.8
20260507011527 40 280 0.0 0.0 0.04 1.12 0.87 96 1008.8
20260507011006 40 280 0.0 0.0 0.05 1.12 0.87 96 1008.8
20260507010503 40 280 0.0 0.0 0.04 1.11 0.86 96 1008.9
20260507010013 40 280 0.0 0.0 0.05 1.11 0.86 96 1008.9
20260507005504 40 280 0.0 0.0 0.06 1.11 0.86 96 1008.9
20260507005004 40 280 0.0 1.0 0.05 1.10 0.85 96 1008.8
20260507004517 40 280 0.0 2.0 0.05 1.10 0.85 96 1008.7
20260507004006 40 280 0.0 2.0 0.04 1.09 0.84 96 1008.6
20260507003506 40 297 0.0 2.0 0.04 1.09 0.84 96 1008.5
20260507003021 40 282 1.0 2.0 0.03 1.08 0.83 96 1008.5
20260507002510 40 282 0.0 1.0 0.04 1.08 0.83 96 1008.1
20260507002010 40 282 0.0 1.0 0.05 1.08 0.83 96 1008.1
20260507001523 40 282 0.0 1.0 0.05 1.08 0.83 96 1008.0
20260507001010 40 281 0.0 1.0 0.04 1.07 0.82 96 1008.0
20260507000507 40 281 0.0 2.0 0.04 1.07 0.82 96 1008.0
20260507000030 40 281 0.0 2.0 0.03 1.05 0.81 96 1008.1
20260506235511 40 290 0.0 2.0 0.02 1.04 0.80 96 1007.9
20260506235003 40 275 0.0 1.0 0.02 1.04 0.80 96 1007.8
20260506234514 40 275 0.0 1.0 0.02 1.04 0.80 96 1007.7
20260506234006 40 275 0.0 1.0 0.02 1.04 0.80 96 1007.6
20260506233505 40 275 0.0 1.0 0.02 1.04 0.80 96 1007.4
20260506233015 40 68 0.0 3.0 0.03 1.04 0.80 96 1007.3
20260506232505 40 354 1.0 3.0 0.02 1.04 0.79 96 1007.2
20260506232006 40 77 0.0 2.0 0.01 1.03 0.78 96 1007.2
20260506231519 40 77 0.0 2.0 0.02 1.03 0.78 96 1007.3
20260506231008 40 310 0.0 1.0 0.02 1.03 0.78 96 1007.4
20260506230508 40 309 0.0 1.0 0.02 1.03 0.78 96 1007.3
20260506230023 40 309 0.0 1.0 0.02 1.03 0.78 96 1007.3
20260506225507 40 319 1.0 3.0 0.02 1.03 0.78 96 1007.3
20260506225008 40 329 1.0 3.0 0.02 1.03 0.78 96 1007.3
20260506224527 40 270 0.0 2.0 0.03 1.03 0.78 96 1007.2
20260506224008 40 285 0.0 3.0 0.03 1.03 0.78 96 1007.2
20260506223508 40 339 0.0 4.0 0.03 1.03 0.78 95 1007.2
20260506223010 40 16 1.0 4.0 0.02 1.02 0.77 95 1007.1
20260506222504 40 24 0.0 4.0 0.02 1.02 0.77 95 1007.1
20260506222006 40 15 2.0 4.0 0.02 1.02 0.77 95 1007.2
20260506221514 40 257 0.0 5.0 0.02 1.01 0.76 95 1007.3
20260506221006 40 261 1.0 5.0 0.02 1.01 0.76 95 1007.3
20260506220509 40 307 1.0 4.0 0.02 1.01 0.76 95 1007.2
20260506220020 40 333 2.0 4.0 0.02 1.01 0.76 95 1007.2
20260506215507 40 288 1.0 2.0 0.03 1.01 0.76 96 1007.1
20260506215008 40 271 0.0 4.0 0.03 1.01 0.76 95 1007.0
20260506214537 40 314 0.0 5.0 0.02 1.00 0.75 95 1007.0
20260506214010 40 285 1.0 5.0 0.03 1.00 0.75 95 1007.0
20260506213508 40 294 0.0 3.0 0.03 1.00 0.75 95 1007.1
20260506213027 41 284 1.0 2.0 0.03 1.00 0.75 95 1007.0
20260506212510 41 290 1.0 3.0 0.03 1.00 0.75 95 1006.8
20260506212011 41 335 1.0 3.0 0.04 1.01 0.75 95 1006.6
20260506211527 41 288 0.0 3.0 0.03 1.00 0.74 95 1006.5
20260506211006 41 18 1.0 3.0 0.03 1.00 0.74 95 1006.5
20260506210503 41 289 0.0 3.0 0.03 1.01 0.74 95 1006.5
20260506210019 41 311 0.0 5.0 0.03 1.01 0.74 95 1006.6
20260506205509 41 300 1.0 5.0 0.02 1.00 0.73 95 1006.7
20260506205007 41 347 1.0 4.0 0.02 1.00 0.73 95 1006.6
20260506204520 41 6 1.0 4.0 0.02 1.01 0.73 95 1006.6
20260506204006 41 321 1.0 2.0 0.01 1.00 0.72 95 1006.7
20260506203507 41 333 1.0 3.0 0.01 1.00 0.72 95 1006.6
20260506203024 41 341 1.0 3.0 0.01 1.00 0.72 95 1006.8
20260506202509 41 285 1.0 6.0 0.01 1.00 0.72 95 1006.7
20260506202010 41 312 1.0 6.0 0.00 0.99 0.71 95 1006.7
20260506201529 41 286 2.0 5.0 0.01 1.00 0.71 95 1006.7
20260506201003 41 300 1.0 3.0 0.02 1.00 0.71 95 1006.6
20260506200504 41 314 2.0 3.0 0.02 1.00 0.71 95 1006.6
20260506200013 41 297 0.0 3.0 0.02 1.00 0.71 94 1006.5
20260506195504 42 278 1.0 2.0 0.03 1.00 0.71 95 1006.5
20260506195004 42 278 1.0 1.0 0.03 1.00 0.71 95 1006.5
20260506194518 42 82 0.0 1.0 0.04 1.01 0.71 95 1006.4
20260506194007 42 82 0.0 1.0 0.04 1.01 0.71 95 1006.4
20260506193503 42 82 0.0 1.0 0.04 1.01 0.71 96 1006.5
20260506193004 42 73 0.0 1.0 0.04 1.02 0.71 96 1006.5
20260506192503 42 73 0.0 1.0 0.04 1.05 0.71 96 1006.5
20260506192003 41 72 0.0 3.0 0.04 1.08 0.71 95 1006.6
20260506191506 41 93 1.0 3.0 0.04 1.07 0.70 95 1006.6
20260506191006 41 316 1.0 3.0 0.03 1.05 0.69 95 1006.6
20260506190504 41 281 0.0 3.0 0.03 1.05 0.69 95 1006.6
20260506190013 41 12 0.0 3.0 0.03 1.05 0.69 95 1006.7
20260506185504 41 303 1.0 3.0 0.02 1.04 0.68 95 1006.7
20260506185003 41 326 0.0 1.0 0.02 1.04 0.68 95 1006.7
20260506184536 41 309 0.0 2.0 0.02 1.04 0.67 95 1006.7
20260506184010 41 310 1.0 2.0 0.02 1.04 0.67 95 1006.7
20260506183506 41 287 1.0 2.0 0.03 1.04 0.67 95 1006.7
20260506183028 41 284 0.0 3.0 0.04 1.04 0.67 95 1006.7
20260506182505 40 318 1.0 3.0 0.04 1.04 0.67 95 1006.7
20260506182005 40 321 2.0 3.0 0.05 1.04 0.67 95 1006.7
20260506181508 41 300 1.0 3.0 0.05 1.03 0.66 95 1006.8
20260506181006 41 296 1.0 4.0 0.05 1.03 0.66 95 1006.8
20260506180504 41 283 0.0 4.0 0.06 1.03 0.66 95 1006.9
20260506180006 41 302 2.0 4.0 0.07 1.03 0.66 94 1007.0
20260506175504 41 293 1.0 2.0 0.07 1.03 0.66 95 1007.1
20260506175003 41 326 0.0 1.0 0.08 1.03 0.66 95 1007.1
20260506174511 41 325 0.0 1.0 0.07 1.02 0.65 95 1007.2
20260506174003 41 27 0.0 2.0 0.08 1.02 0.65 95 1007.3
20260506173505 41 27 1.0 2.0 0.07 1.01 0.64 95 1007.4
20260506173015 41 14 0.0 2.0 0.07 1.00 0.63 95 1007.6
20260506172506 41 14 1.0 2.0 0.08 1.00 0.63 95 1007.4
20260506172008 41 309 0.0 1.0 0.07 0.99 0.62 95 1007.5
20260506171518 41 284 0.0 3.0 0.07 0.98 0.61 95 1007.5
20260506171008 41 284 0.0 3.0 0.08 0.98 0.61 95 1007.5
20260506170507 41 20 1.0 5.0 0.08 0.97 0.60 95 1007.4
20260506170005 40 16 2.0 5.0 0.08 0.96 0.58 95 1007.3
20260506165503 41 317 0.0 6.0 0.09 0.96 0.58 95 1007.5
20260506165003 41 350 0.0 6.0 0.09 0.95 0.58 95 1007.4
20260506164508 41 340 2.0 4.0 0.10 0.95 0.58 95 1007.5
20260506164005 41 294 1.0 3.0 0.10 0.94 0.57 95 1007.6
20260506163504 41 221 0.0 3.0 0.11 0.94 0.57 95 1007.6
20260506163013 41 297 1.0 3.0 0.11 0.93 0.56 95 1007.7
20260506162507 41 35 1.0 3.0 0.11 0.92 0.55 95 1007.5
20260506162007 40 285 0.0 3.0 0.11 0.92 0.55 95 1007.8
20260506161518 40 281 1.0 3.0 0.11 0.91 0.54 95 1007.9
20260506161006 40 126 0.0 2.0 0.12 0.90 0.52 95 1008.0
20260506160507 40 86 0.0 2.0 0.11 0.89 0.52 95 1007.9
20260506160020 40 254 0.0 4.0 0.11 0.88 0.51 95 1008.1
20260506155508 40 298 1.0 4.0 0.11 0.87 0.50 95 1008.1
20260506155007 40 23 1.0 4.0 0.11 0.86 0.49 95 1008.2
20260506154526 40 271 2.0 4.0 0.10 0.85 0.48 95 1008.2
20260506154003 40 295 1.0 4.0 0.10 0.84 0.47 95 1008.2
20260506153505 40 285 1.0 4.0 0.09 0.83 0.46 95 1008.1
20260506153018 40 26 0.0 4.0 0.09 0.82 0.45 95 1008.0
20260506152503 40 32 2.0 3.0 0.08 0.81 0.44 95 1008.0
20260506152005 40 281 1.0 3.0 0.08 0.81 0.44 95 1008.0
20260506151515 41 28 1.0 3.0 0.08 0.80 0.43 95 1007.9
20260506151006 41 288 2.0 3.0 0.06 0.78 0.41 95 1007.9
20260506150507 41 291 2.0 3.0 0.06 0.78 0.41 94 1007.8
20260506150017 41 290 1.0 3.0 0.05 0.77 0.40 94 1007.9
20260506145506 41 308 1.0 3.0 0.05 0.76 0.39 94 1007.8
20260506145004 41 267 0.0 1.0 0.05 0.75 0.38 95 1007.7
20260506144522 41 273 0.0 1.0 0.05 0.75 0.38 95 1007.7
20260506144008 41 284 0.0 1.0 0.05 0.74 0.37 94 1007.7
20260506143508 42 296 0.0 1.0 0.06 0.74 0.37 95 1007.8
20260506143031 42 318 0.0 0.0 0.06 0.73 0.36 95 1007.8
20260506142505 42 319 0.0 1.0 0.06 0.73 0.36 95 1007.8
20260506142003 42 318 0.0 5.0 0.07 0.73 0.36 95 1007.9
20260506141507 42 338 1.0 5.0 0.07 0.72 0.35 95 1008.0
20260506141007 42 13 1.0 5.0 0.07 0.72 0.35 95 1007.9
20260506140504 42 80 1.0 4.0 0.08 0.72 0.35 95 1007.7
20260506140017 42 303 1.0 4.0 0.08 0.72 0.35 94 1007.8
20260506135503 42 291 2.0 3.0 0.08 0.71 0.34 94 1008.0
20260506135005 42 311 1.0 4.0 0.08 0.70 0.33 95 1007.9
20260506134518 42 7 1.0 4.0 0.09 0.70 0.33 95 1007.7
20260506134011 42 288 3.0 4.0 0.08 0.69 0.32 95 1008.0
20260506133508 43 278 0.0 2.0 0.08 0.68 0.31 95 1007.6
20260506133023 42 281 0.0 2.0 0.08 0.67 0.30 95 1007.4
20260506132511 42 71 0.0 2.0 0.09 0.67 0.30 95 1007.5
20260506132010 42 352 1.0 2.0 0.09 0.66 0.29 95 1008.0
20260506131533 42 102 1.0 2.0 0.08 0.65 0.28 94 1007.7
20260506131007 43 276 0.0 7.0 0.09 0.65 0.28 94 1007.7
20260506130507 43 112 1.0 8.0 0.09 0.64 0.27 94 1007.6
20260506130012 43 281 5.0 9.0 0.09 0.64 0.27 94 1008.4
20260506125504 43 96 6.0 9.0 0.09 0.63 0.26 94 1007.5
20260506125003 43 284 2.0 5.0 0.08 0.62 0.25 95 1008.5
20260506124513 43 71 2.0 11.0 0.07 0.61 0.24 94 1008.0
20260506124010 43 162 4.0 11.0 0.07 0.61 0.24 94 1007.5
20260506123506 43 321 6.0 10.0 0.06 0.60 0.23 93 1009.1
20260506123021 44 194 1.0 3.0 0.06 0.58 0.22 95 1008.1
20260506122506 44 278 0.0 4.0 0.05 0.58 0.21 94 1008.5
20260506122009 44 26 1.0 4.0 0.04 0.57 0.20 94 1008.5
20260506121524 44 14 1.0 3.0 0.04 0.57 0.20 94 1008.6
20260506121009 44 283 1.0 3.0 0.03 0.56 0.19 94 1008.7
20260506120509 44 347 1.0 5.0 0.02 0.55 0.18 94 1008.7
20260506120024 43 337 2.0 5.0 0.02 0.55 0.18 94 1008.6
20260506115506 44 309 1.0 4.0 0.02 0.54 0.17 94 1008.7
20260506115004 44 347 2.0 3.0 0.02 0.54 0.17 94 1008.7
20260506114520 44 286 1.0 2.0 0.02 0.54 0.17 94 1008.9
20260506114003 44 352 1.0 5.0 0.02 0.54 0.17 94 1008.7
20260506113503 44 286 1.0 5.0 0.02 0.54 0.17 94 1008.7
20260506113031 44 83 2.0 7.0 0.01 0.52 0.16 93 1008.6
20260506112508 44 291 3.0 7.0 0.01 0.52 0.16 94 1008.5
20260506112005 45 295 3.0 4.0 0.01 0.52 0.16 93 1009.0
20260506111527 45 300 1.0 3.0 0.01 0.52 0.16 94 1008.8
20260506111007 45 333 0.0 2.0 0.01 0.52 0.16 93 1008.6
20260506110507 45 302 1.0 3.0 0.01 0.52 0.16 93 1008.5
20260506110006 45 108 1.0 4.0 0.01 0.52 0.16 93 1008.2
20260506105503 46 342 1.0 4.0 0.01 0.52 0.15 94 1008.2